Location: Harlesden
(51.5333°N, 0.2500°W)
Time: 03:47:48
(UTC+00:00)

Daily predictions for brighter satellites

Satellite Brightness Start Highest point End
(mag) Time Altitude Azimuth Time Altitude Azimuth Time Altitude Azimuth
Cosmos 2369 Rocket 3.9 00:10:56 29° NNE 00:10:56 29° NNE 00:13:42 10° NNE
USA 234 4.2 00:03:31 10° ENE 00:17:11 - WNW 00:07:47 40° NE
COSMOS 2455 4.4 00:26:25 29° NNW 00:26:31 29° NNW 00:31:45 10° NNE
Cosmos 2227 Rocket 3.6 00:50:32 10° NNW 00:54:07 34° N 00:54:07 34° N
SL-16 R/B 3.1 01:15:09 53° N 01:15:09 53° N 01:19:54 10° NNW
ATLAS 2AS CENTAUR R/B 4.4 01:11:15 10° WNW 01:18:16 33° N 01:24:56 10° ENE
CZ-2D R/B 3.5 01:15:22 10° NNE 01:18:48 34° NE 01:18:48 34° NE
Cosmos 1943 Rocket 4.0 01:21:05 22° NNW 01:21:05 22° NNW 01:25:11 10° NNE
Lacrosse 5 4.4 01:29:27 14° E 01:29:27 14° E 01:30:29 10° E
Resurs 1-4 Rocket 3.3 01:22:25 10° NNE 01:25:56 38° NE 01:25:56 38° NE
ATLAS 5 CENTAUR R/B 3.8 01:30:41 24° NE 01:30:41 24° NE 01:32:42 10° NE
Cosmos 2297 Rocket 3.9 01:37:07 10° NNW 01:39:22 25° NNW 01:39:22 25° NNW
Cosmos 2082 4.4 01:43:11 10° NNW 01:47:38 50° N 01:47:38 50° N
USA 234 3.4 01:46:04 10° E 01:52:33 71° NNE 01:55:07 39° NW
Cosmos 2369 Rocket 4.0 01:52:43 21° NW 01:53:04 21° NW 01:57:18 10° NNE
CZ-4C R/B 4.2 01:51:44 19° NW 01:55:03 29° N 02:01:07 10° ENE
Cosmos 1697 Rocket 3.8 02:01:35 35° ESE 02:01:35 35° ESE 02:06:33 10° NE
NOSS 2-2 (C) 4.5 02:06:12 71° E 02:06:12 71° E 02:12:57 10° SE
Cosmos 1980 Rocket 4.0 02:05:36 21° ESE 02:06:49 23° ESE 02:11:06 10° NE
Cosmos 2263 Rocket 3.8 02:04:36 10° NNW 02:09:41 33° NE 02:14:45 10° ESE
Cosmos 2366 rocket 4.3 02:11:25 10° NNW 02:16:29 54° NW 02:16:29 54° NW
Cosmos 2218 Rocket 4.4 02:11:49 10° NNW 02:16:58 53° NW 02:16:58 53° NW
Gbstr 26 Del rocket 4.4 02:18:37 55° W 02:20:43 88° S 02:28:29 10° ESE
CZ-3B R/B 3.5 02:25:23 32° E 02:25:23 32° E 02:29:27 10° ENE
ADEOS II 2.3 02:20:14 10° NNE 02:25:24 66° E 02:25:24 66° E
Cosmos 1151 Rocket 4.1 02:26:32 43° ENE 02:26:32 43° ENE 02:29:59 10° NNE
Nadezhda 3 Rocket 4.4 02:26:57 45° SE 02:28:31 58° E 02:34:33 10° NNE
ARIANE 5 R/B 3.6 02:25:29 10° NNE 02:30:15 38° E 02:31:22 34° SE
Cosmos 1656 3.6 02:32:28 80° N 02:32:28 80° N 02:37:45 10° NNE
IDEFIX/ARIANE 42P 3.9 02:29:50 10° NNE 02:34:38 34° E 02:36:51 24° SE
IRS-1D 3.5 02:30:04 10° NNE 02:35:24 85° ENE 02:35:24 85° ENE
Cosmos 2227 Rocket 4.2 02:34:47 10° NW 02:35:52 15° NW 02:35:52 15° NW
Cosmos 2181 Rocket 4.4 02:43:38 46° WNW 02:43:38 46° WNW 02:49:23 10° N
SL-08 R/B 4.5 02:37:28 10° NNW 02:43:48 63° W 02:43:53 63° W
CBERS-1 3.9 02:39:28 10° NNE 02:44:31 85° NNW 02:44:31 85° NNW
IRS-1C 4.2 02:46:24 10° NNE 02:51:46 72° ESE 02:52:48 56° SSE
Meteor 1-20 Rocket 4.0 02:50:19 10° NNW 02:55:47 71° W 02:55:51 71° WSW
USA 307 3.6 02:57:59 47° ESE 02:57:59 47° ESE 03:01:29 10° ENE
Cosmos 1238 Rocket 4.3 02:50:59 10° N 02:57:39 70° ENE 03:03:47 10° SSE
SJ 16-02 2.5 02:53:28 10° NNW 02:57:40 43° ENE 03:01:52 10° SE
SL-16 R/B 4.0 03:00:15 20° WNW 03:00:15 20° WNW 03:02:56 10° NW
USA 267 3.5 02:52:02 10° ENE 02:58:31 59° SE 03:00:27 43° SSW
Cosmos 1782 3.4 02:59:09 53° ESE 02:59:16 54° E 03:03:13 10° NNE
Cosmos 44 4.3 02:59:36 31° SE 03:00:21 33° ESE 03:04:32 10° NE
CZ-2D R/B 3.0 02:55:39 10° N 03:00:07 34° NW 03:00:07 34° NW
USA 308 3.5 03:01:02 50° ESE 03:01:02 50° ESE 03:04:41 10° ENE
Cosmos 389 Rocket 3.6 03:02:26 41° E 03:02:26 41° E 03:05:43 10° NNE
USA 276 4.3 03:04:24 24° E 03:04:24 24° E 03:05:52 10° E
Cosmos 1606 4.3 03:04:58 25° NNW 03:04:58 25° NNW 03:06:52 10° N
Cosmos 2278 4.0 03:02:26 41° S 03:04:15 61° ESE 03:09:53 10° NE
Resurs 1-4 Rocket 3.1 03:02:39 10° N 03:07:00 30° WNW 03:07:00 30° WNW
ATLAS CENTAUR R/B 4.2 02:52:03 10° W 03:07:33 61° N 03:13:09 10° E
Lacrosse 5 1.8 03:08:39 65° SSW 03:09:14 72° SE 03:14:19 10° ENE
H-2A R/B 3.1 03:06:25 10° SE 03:10:39 48° ENE 03:14:59 10° N
ATLAS 2AS CENTAUR R/B 3.7 03:03:29 10° NW 03:10:59 50° NNE 03:17:56 10° ESE
NPP 4.5 03:06:48 10° N 03:11:37 34° WNW 03:11:43 34° WNW
Cosmos 2369 3.6 03:11:30 54° SW 03:12:55 86° WNW 03:18:42 10° NNE
ATLAS 5 CENTAUR R/B 3.0 03:12:12 27° NW 03:13:07 30° NNW 03:17:34 10° NE
SL-08 R/B 3.7 03:16:44 43° WNW 03:16:44 43° WNW 03:20:18 10° NNW
Landsat 5 4.1 03:18:47 10° SSE 03:23:15 63° ENE 03:27:40 10° N
ADEOS Rocket 4.1 03:18:22 10° SE 03:24:38 47° ENE 03:30:21 10° N
CZ-4B R/B 4.4 03:23:22 10° ESE 03:25:35 18° ENE 03:27:52 10° NNE
Cosmos 1470 Rocket 4.4 03:24:46 10° NNW 03:27:56 36° WNW 03:27:56 36° WNW
IRS-P3 4.2 03:25:40 10° N 03:30:54 56° WNW 03:32:20 43° WSW
Spot 4 Rocket 4.0 03:25:43 10° NNE 03:30:54 83° ESE 03:33:40 28° SSW
MSX 4.0 03:27:22 10° NNE 03:33:10 71° ESE 03:37:58 15° S
ERS-2 3.4 03:29:58 10° SE 03:33:26 43° ENE 03:36:57 10° N
USA 234 3.2 03:29:17 10° SE 03:35:43 58° SW 03:42:10 10° WNW
CZ-4B R/B 4.3 03:33:21 10° N 03:37:54 34° WNW 03:38:39 32° W
Cosmos 2360 4.2 03:37:39 38° SW 03:39:52 67° NW 03:45:37 10° NNE
Cosmos 1536 4.5 03:36:59 10° N 03:40:47 36° ENE 03:44:34 10° SE
Cosmos 1898 Rocket 3.7 03:35:37 10° NNW 03:40:52 72° ENE 03:46:09 10° SSE
X-37B 2.6 03:42:02 19° SSE 03:42:02 19° SSE 03:43:32 10° SE
CSL-04 DEB 4.5 03:37:45 10° SSE 03:42:05 89° WSW 03:46:30 10° NNW
Iridium 2 3.5 03:42:11 58° SW 03:42:40 66° W 03:46:26 10° N
BREEZE M DEB (TANK) 4.4 03:26:59 10° WNW 03:45:18 54° SW 03:50:23 10° SE
Cosmos 1697 Rocket 3.0 03:43:20 35° WSW 03:45:19 49° NW 03:50:48 10° NNE
CZ-4C R/B 4.0 03:39:11 10° NW 03:45:19 39° NNE 03:52:30 10° E
SL-8 R/B 4.3 03:45:53 35° SSW 03:46:03 35° SSW 03:50:23 10° SE
Cosmos 1980 Rocket 2.2 03:47:24 31° SW 03:50:15 74° WNW 03:55:57 10° NNE
Cosmos 972 Rocket 4.3 03:49:28 35° WSW 03:50:52 44° WNW 03:55:39 10° NNE
Cosmos 1515 Rocket 3.9 03:50:06 39° WSW 03:51:07 46° WNW 03:55:26 10° N
IRIDIUM 114 4.3 03:48:01 10° N 03:53:17 86° E 03:58:31 10° S
Cosmos 2263 Rocket 2.1 03:48:24 10° NW 03:53:59 61° WSW 03:59:34 10° SSE
Cosmos 1934 Rocket 4.2 03:48:59 10° NNW 03:54:43 46° W 03:59:39 14° SSW
Cosmos 921 Rocket 2.9 03:52:49 24° SSW 03:55:14 80° ESE 03:59:27 10° NNE
Meteor 1-26 Rocket 4.4 03:53:50 30° SW 03:56:03 47° WNW 04:01:17 10° N
Cosmos 2322 Rocket 3.5 03:51:59 10° S 03:57:11 38° ESE 04:02:26 10° NE
USA 32 4.3 03:53:36 10° N 03:58:52 70° E 04:04:06 10° SSE
Cosmos 1844 Rocket 3.8 03:54:28 10° NNW 03:59:54 45° NE 04:05:19 10° ESE
Cosmos 1500 3.3 03:57:16 10° NNW 04:01:02 51° W 04:03:18 21° SSW
IRIDIUM 103 4.2 03:57:11 10° N 04:02:26 81° W 04:07:38 10° S
Cosmos 1151 Rocket 4.4 04:03:24 22° WNW 04:03:37 22° WNW 04:07:02 10° NNW
Cosmos 1812 2.6 04:01:20 19° SSW 04:04:02 85° W 04:07:55 10° N
Cosmos 1707 Rocket 4.3 04:00:21 10° S 04:04:33 53° E 04:08:49 10° NNE
ADEOS II 3.3 04:00:37 10° N 04:04:47 24° WNW 04:06:19 21° W
USA 305 2.9 04:03:31 32° WSW 04:05:26 82° NNW 04:09:41 10° ENE
SL-16 R/B 2.9 04:00:44 10° S 04:06:12 53° ESE 04:11:44 10° NE
Cosmos 1666 2.6 04:02:49 10° N 04:06:41 88° ENE 04:10:29 10° S
Cosmos 1937 Rocket 3.5 04:01:35 10° NNW 04:06:47 83° ENE 04:11:55 10° SSE
CZ-4C R/B 3.4 04:06:18 24° SSW 04:08:00 42° W 04:11:26 10° NNW
Cosmos 192 4.4 04:05:47 24° SW 04:08:37 62° WNW 04:13:32 10° NNE
ARIANE 5 R/B 3.1 04:04:41 10° N 04:09:22 37° WNW 04:11:42 24° WSW
USA 306 2.9 04:07:32 29° W 04:09:37 80° NNW 04:13:54 10° ENE
Cosmos 2227 4.5 04:06:57 10° NW 04:12:16 43° WSW 04:17:32 10° S
IDEFIX/ARIANE 42P 3.0 04:09:21 10° N 04:14:20 43° WNW 04:17:39 20° SW
COSMOS 2441 4.5 04:11:39 10° N 04:16:30 59° WNW 04:20:46 13° SSW
Meteor 1-10 Rocket 4.3 04:10:52 10° SSW 04:16:40 82° WNW 04:22:37 10° NNE
Cosmos 1153 Rocket 4.5 04:10:50 10° NNW 04:17:13 72° W 04:23:30 10° S
ASTEX 1 4.2 04:13:46 10° N 04:18:13 33° WNW 04:20:50 20° WSW
CZ-2C R/B 2.6 04:13:25 10° NNE 04:18:34 83° ESE 04:23:45 10° SSW
Cosmos 1733 Rocket 3.4 04:14:20 10° N 04:18:42 67° ENE 04:23:01 10° SSE
Cosmos 2228 Rocket 3.4 04:17:07 20° SW 04:19:54 45° WNW 04:24:10 10° N
IRIDIUM 106 4.4 04:15:35 10° N 04:20:43 59° W 04:25:50 10° SSW
Cosmos 1605 Rocket 4.3 04:15:28 10° NNW 04:21:31 46° W 04:27:34 10° SSW
SAR-Lupe-4 4.0 04:18:45 10° SSE 04:22:19 67° ENE 04:25:55 10° N
CZ-2D R/B 4.4 04:19:19 10° N 04:23:01 30° WNW 04:24:57 21° WSW
SL-4 R/B 3.9 04:21:35 10° SSW 04:25:32 29° SE 04:29:39 10° E
Cosmos 1869 Rocket 4.0 04:21:31 10° NNW 04:25:33 38° W 04:29:33 10° SSW
Meteor 1-5 Rocket 4.4 04:20:39 10° NNW 04:25:38 43° W 04:30:42 10° SSW
Cosmos 1763 Rocket 3.7 04:22:44 10° SSW 04:28:03 79° ESE 04:33:22 10° NNE
Meteor 2-6 Rocket 4.4 04:26:14 10° SSW 04:31:48 54° WNW 04:37:34 10° N
Cosmos 2016 Rocket 4.4 04:25:58 10° N 04:32:05 66° ENE 04:38:09 10° SSE
CZ-2C R/B 3.5 04:29:51 10° N 04:33:13 32° WNW 04:35:35 17° WSW
SAR-Lupe-1 4.1 04:30:55 10° SSE 04:34:29 87° ENE 04:38:05 10° NNW
Cosmos 1782 4.4 04:34:47 16° W 04:35:55 18° WNW 04:38:45 10° NNW
SJ 16-02 2.3 04:32:24 10° NW 04:36:04 26° W 04:39:42 10° SSW
Meteor 1-4 Rocket 2.7 04:33:50 11° SSW 04:37:02 49° WNW 04:40:29 10° N
Cosmos 389 Rocket 4.1 04:36:18 16° W 04:37:15 18° WNW 04:39:48 10° NNW
USA 307 3.0 04:34:10 17° W 04:37:22 69° NNW 04:41:37 10° ENE
PSLV R/B 3.5 04:34:04 10° N 04:38:14 60° WNW 04:42:20 10° SSW
NOSS 3-4 (A) 3.8 04:31:29 10° NW 04:38:21 73° SW 04:46:00 10° SSE
NOSS 3-4 (C) 3.8 04:31:35 10° NW 04:38:28 73° SW 04:46:07 10° SSE
Cosmos 1862 Rocket 4.2 04:34:24 10° S 04:38:42 59° E 04:43:01 10° NNE
USA 276 2.2 04:36:45 19° W 04:38:52 63° S 04:42:04 10° ESE
USA 308 3.1 04:37:13 16° W 04:40:34 68° N 04:44:49 10° ENE
Cosmos 44 3.6 04:38:02 16° WSW 04:41:27 47° NW 04:46:04 10° NE
BREEZE-M DEB (TANK) 4.0 04:35:47 11° SW 04:41:39 29° S 04:44:23 10° ESE
USA 267 3.4 04:35:09 10° ENE 04:41:40 70° NNW 04:47:47 12° W
BREEZE-M DEB (TANK) 3.7 04:40:44 15° WSW 04:43:17 62° SSE 04:52:07 10° E
PAYLOAD A 3.9 04:38:59 10° N 04:43:35 55° WNW 04:48:10 10° SW
Cosmos 1743 3.0 04:41:30 10° N 04:45:19 70° ENE 04:49:07 10° SSE
ERBS 2.3 04:43:59 14° SW 04:46:47 80° SSE 04:50:09 10° ENE
H-2A R/B 3.2 04:43:18 10° SSW 04:46:52 24° W 04:50:30 10° NW
NOSS 3-3 (A) 4.1 04:44:08 11° SW 04:49:51 71° NW 04:56:42 10° NE
NOSS 3-3 (C) 4.0 04:44:18 11° SW 04:49:58 71° NW 04:56:47 10° NE
Cosmos 1725 Rocket 4.2 04:45:34 10° N 04:51:48 76° E 04:57:58 10° SSE
Lacrosse 5 2.4 04:47:50 12° W 04:52:27 51° NNW 04:57:24 10° ENE
Cosmos 540 Rocket 3.8 04:50:13 10° SSW 04:55:22 72° ESE 05:00:33 10° NNE
Cosmos 468 Rocket 4.1 04:50:58 10° SW 04:56:12 60° WNW 05:01:26 10° NNE
CZ-4B R/B 1.8 04:54:40 10° SSW 04:57:38 36° W 05:00:41 10° NNW
Cosmos 2100 Rocket 4.1 04:51:51 10° NNW 04:58:05 58° W 05:04:18 10° S
ATLAS 5 CENTAUR R/B 3.8 04:55:29 10° NW 04:59:15 22° N 05:03:28 10° NE
Cosmos 1727 Rocket 4.3 04:54:33 10° SSW 05:00:41 49° WNW 05:06:50 10° N
ALOS 2.4 04:56:22 10° NNE 05:01:05 86° ESE 05:05:44 10° SSW
CZ-4B R/B 3.9 04:58:38 10° NNE 05:02:13 45° E 05:05:41 10° S
ATLAS 2AS CENTAUR R/B 2.9 04:54:50 10° NW 05:02:19 64° SW 05:09:09 10° SSE
Cosmos 1802 Rocket 4.0 04:57:02 10° NNW 05:03:11 68° W 05:09:22 10° S
CZ-4B R/B 4.2 04:59:30 10° NNE 05:03:49 83° ESE 05:08:16 10° SSW
Meteor 1-11 Rocket 4.3 04:58:40 10° NNW 05:03:51 35° W 05:08:55 10° SSW
ERS-2 3.5 05:04:32 10° SW 05:07:11 19° W 05:09:52 10° NW
Okean 1 3.9 05:03:32 10° S 05:07:32 63° E 05:11:34 10° NNE
ADEOS Rocket 3.5 05:04:02 10° SSW 05:10:16 40° W 05:15:58 10° NNW
Cosmos 1689 Rocket 2.1 05:07:34 10° S 05:10:30 58° WSW 05:13:28 10° NNW
Cosmos 1484 Rocket 2.8 05:06:41 10° N 05:10:40 70° WNW 05:14:38 10° SSW
COSMO-SKYMED 1 2.5 05:08:46 10° SSE 05:13:07 79° WSW 05:17:30 10° NNW
Cosmos 1459 Rocket 4.2 05:07:59 10° NNW 05:13:48 47° W 05:19:31 10° SSW
